Regional Weather Roundup
Issued by NWS

Home | Current Version | Previous Version | Text Only | Print | Product List | Glossary Off
Versions: 1 2 3 4 5 6 7 8 9 10 11 12 13 14 15 16 17 18 19 20 21 22 23 24 25 26 27 28 29 30 31 32 33 34 35 36 37 38 39 40 41 42 43 44 45 46 47 48 49 50

000
ASUS43 KMKX 311411
RWRWI

WISCONSIN REGIONAL WEATHER ROUNDUP
NATIONAL WEATHER SERVICE MILWAUKEE/SULLIVAN WI
900 AM CDT FRI OCT 31 2014

NOTE: "FAIR" INDICATES FEW OR NO CLOUDS BELOW 12,000 FEET WITH NO
SIGNIFICANT WEATHER AND/OR OBSTRUCTIONS TO VISIBILITY.

WIZ001-002-006>008-014>016-023>028-311500-
NORTHWEST WISCONSIN

CITY           SKY/WX    TMP DP  RH WIND       PRES   REMARKS
SUPERIOR ARPT  SUNNY     29  19  65 N9G16     30.57R WCI  21
ASHLAND        CLOUDY    31  22  69 N17G23    30.50R WCI  19
HAYWARD        CLOUDY    30  19  63 N9        30.48R WCI  22
SIREN          CLOUDY    29  18  63 N10       30.54R WCI  20
CUMBERLAND     SUNNY     28  18  64 N13G23    30.48R WCI  18
RICE LAKE      SUNNY     29  20  69 N10G17    30.49R WCI  20
CHETEK         SUNNY     29  22  73 NW10G22   30.47R WCI  20
LADYSMITH      SUNNY     30  24  78 N13G20    30.43S WCI  20
EAU CLAIRE     SUNNY     30  19  63 N10       30.46R WCI  21
MENOMONIE      SUNNY     31  19  61 N15G21    30.48R WCI  20
NEW RICHMOND   SUNNY     28  19  66 N13       30.52R WCI  18
OSCEOLA        CLOUDY    29  19  65 N8        30.56R WCI  21
$$

WIZ003>005-009-010-017-018-311500-
NORTH CENTRAL WISCONSIN

CITY           SKY/WX    TMP DP  RH WIND       PRES   REMARKS
MANITOWISH WTR LGT SNOW  26  24  92 N10G16    30.38R WCI  16
ARBOR VITAE    FLURRIES  29  25  83 N12       30.37R WCI  20
WOODRUFF       FLURRIES  29  25  83 N12       30.37R WCI  20
RHINELANDER    PTSUNNY   27  22  81 N12G22    30.34R WCI  17
EAGLE RIVER    LGT SNOW  27  21  79 N12G22    30.34R WCI  16
LAND O LAKES   LGT SNOW  27  25  89 N16G23    30.36R WCI  15
PHILLIPS       FLURRIES  28  23  82 N8G17     30.39R WCI  19
TOMAHAWK       MOSUNNY   28  21  76 N14G21    30.37R WCI  17
MEDFORD        CLOUDY    28  23  81 N13G22    30.36R WCI  17
MERRILL        PTSUNNY   29  22  75 N10G26    30.34R WCI  20
$$

WIZ029-030-035-036-043>047-311500-
CENTRAL WISCONSIN

CITY           SKY/WX    TMP DP  RH WIND       PRES   REMARKS
WAUSAU         PTSUNNY   30  20  66 N14G23    30.33R WCI  19
MOSINEE        PTSUNNY   28  23  80 N22       30.34R WCI  15
MARSHFIELD     PTSUNNY   32  21  64 N16G23    30.35R WCI  21
STEVENS POINT  MOSUNNY   29  20  69 N18G26    30.33R WCI  16
WAUPACA        PTSUNNY   33  24  68 N13G20    30.29R WCI  24
WAUTOMA        SUNNY     33  22  64 N17G25    30.31R WCI  22
WISC RAPIDS    SUNNY     32  21  64 N21G32    30.35R WCI  20
CAMP DOUGLAS   MOSUNNY   34  23  64 N17G24    30.36R WCI  23
$$

WIZ011>013-019>022-031-037>040-048>050-311500-
NORTHEAST WISCONSIN

CITY           SKY/WX    TMP DP  RH WIND       PRES   REMARKS
ANTIGO         CLOUDY    28  22  76 N20G26    30.30R WCI  15
SHAWANO        CLOUDY    35  23  61 N21G29    30.29R WCI  24
OCONTO         CLOUDY    33  24  69 N16G25    30.27R WCI  23
STURGEON BAY   PTSUNNY   34  25  69 N35G45    30.22R WCI  19
GREEN BAY      CLOUDY    34  23  64 N24G39    30.25R WCI  21
MANITOWOC      LGT RAIN  35  27  72 N29G39    30.17R WCI  22
APPLETON       PTSUNNY   34  19  55 N26G35    30.24R WCI  21
CLINTONVILLE   CLOUDY    34  21  60 N20G25    30.29R WCI  22
OSHKOSH        CLOUDY    34  22  61 N23G30    30.24R WCI  22
$$

WIZ032>034-041-042-053>061-311500-
SOUTHWEST WISCONSIN

CITY           SKY/WX    TMP DP  RH WIND       PRES   REMARKS
LA CROSSE      PTSUNNY   33  21  61 N17G25    30.42R WCI  22
SPARTA         PTSUNNY   32  21  64 N13G21    30.39R WCI  22
VIROQUA        CLOUDY    31  21  65 N18G28    30.36R WCI  19
BOSCOBEL       SUNNY     36  20  52 N15G24    30.36R WCI  27
PRAIRIE DU CHI CLOUDY    33  19  55 N14G25    30.39R WCI  23
PLATTEVILLE    SUNNY     34  22  61 N18G28    30.31R WCI  23
$$

WIZ056-057-062-063-064-067-068-311500-
SOUTH CENTRAL WISCONSIN

CITY           SKY/WX    TMP DP  RH WIND       PRES   REMARKS
REEDSBURG      PTSUNNY   32  22  65 N23G29    30.32R WCI  19
BARABOO/DELLS  MOSUNNY   32  22  65 N20G26    30.30R WCI  20
LONE ROCK      MOSUNNY   39  21  48 N15G28    30.33R WCI  31
MINERAL POINT  MOSUNNY   34  21  60 N16G26    30.29R WCI  23
MADISON        MOSUNNY   33  23  66 N23G31    30.27R WCI  21
MIDDLETON      MOSUNNY   35  23  61 N23G33    30.28R WCI  23
WATERTOWN      CLOUDY    33  27  76 N18G31    30.21R WCI  22
MONROE         PTSUNNY   34  25  69 N20G31    30.24R WCI  22
JANESVILLE     PTSUNNY   36  25  64 N23G33    30.21R WCI  24
$$

WIZ051-052-058>065-066-070>072-311500-
SOUTHEAST WISCONSIN

CITY           SKY/WX    TMP DP  RH WIND       PRES   REMARKS
MILWAUKEE      FLURRIES  35  26  69 N26G44    30.14R WCI  22
WAUKESHA       CLOUDY    34  25  69 N22G32    30.17R WCI  22
MILWAUKEE/TIMM CLOUDY    34  25  69 N22G31    30.16R WCI  22
RACINE         FLURRIES  36  27  69 N23G40    30.14R WCI  24
BURLINGTON     PTSUNNY   33  26  74 NW22G29   30.17R WCI  21
KENOSHA        CLOUDY    36  28  73 N22G31    30.13R WCI  25
FOND DU LAC    CLOUDY    34  21  59 N21G37    30.24R WCI  22
SHEBOYGAN      CLOUDY    35  24  64 N26G40    30.17R WCI  22
WEST BEND      CLOUDY    32  23  69 N17G33    30.18R WCI  21
JUNEAU         CLOUDY    32  25  76 NW17      30.24R WCI  21
$$

LSZ147-162-311500-
LAKE SUPERIOR

STATION/POSITION TIME  TEMP    WIND        PRES    WAVE
                       AIR SEA DIR/SP/G            HT/PER
                 (UTC) (F)     (DEG/KT/KT) (MB)    (FT/S)
W MID LAKE BUOY  1350   33 43  360/ 21/ 27 1032.5R   8/ 8
DEVILS ISLAND    1400   32      10/ 22/ 26 1034.5R
PORT WING        1302   33      10/ 18/ 25 1033.2
SAXON HARBOR     1338   36      10/ 21/ 26 1031.8R
$$

LMZ867-665-643>646-311500-
LAKE MICHIGAN

STATION/POSITION TIME  TEMP    WIND        PRES    WAVE
                       AIR SEA DIR/SP/G            HT/PER
                 (UTC) (F)     (DEG/KT/KT) (MB)    (FT/S)
CHAMBERS ISLAND  1300   36     330/ 34/ 39 1022.7R
N MID LAKE BUOY  1350   37 50   10/ 33/ 41 1021.7R   9/ 8
NORTHPORT PIER   1304   36     360/ 30/ 35 1022.7R
SISTER BAY       1328          360/ 32/ 44   N/A
ALGOMA LAKESHORE 1312           10/ 20/ 30   N/A
KEWAUNEE LAKESHO 1300   34     340/ 18/ 26 1020.1R
SHEBOYGAN LAKESH 1400   37 48  350/ 36/ 43 1022.1R
PORT WASHINGTON  1320   36     330/  9/ 24 1021.7R
ATWATER BUOY     1400   39     340/ 25/ 31 1021.2R
MILWAUKEE LAKESH 1300   37     340/ 17/ 21   N/A
S MID LAKE BUOY  1350   40 52  330/ 37/ 47 1016.2R  12/ 8
KENOSHA   LAKESH 1400   37     340/ 32/ 40 1019.3R
$$

TC  - TEMPERATURE IN CELSIUS
VSB - VISIBILITY IN STATUTE MILES
WCI - WIND CHILL INDEX
HX  - HEAT INDEX




USA.gov is the U.S. government's official web portal to all federal, state and local government web resources and services.